NOAA 16 DEB

Satellite information

Favourite Embed

Satellite Type and Status

DEBRISIN ORBIT

Key statistics

Satellite NOAA 16 DEB at a glance.

Uptime

8995

Days in orbit

Revolutions

≈ 14.3

Per day

Orbit

SSO

Sun Synchronous Orbit

Inclination

99.0

Latest

Satellite identification and parameters

Extended collection of information and parameters for NOAA 16 DEB.

Object identification

Identified? True

Debris? True

Object name: NOAA 16 DEB

International designator: 2000-055EU

Object number (NORAD): 41244

Object ID (CCSDS): 41244

Country: UNITED STATES OF AMERICA (US)

Current information (Y/N): Y

RCS size: SMALL

Orbital parameters

Period: 100.487 minutes

Inclination: 99.0237 deg

SMA: 7159.777 km

Apoapsis: 790.367 km

Periapsis: 772.918 km

RAAN: 278.6495 deg

Eccentricy: 0.0012185

Argument of periapsis: 99.7037 deg

Mean anomaly: 260.5522 deg

Mean motion: 14.33024052 rev/day

Mean motion (dot): 0.00006253 rev/day2

B* drag term: 0.0022972 1/REarth

Two-line elements (TLE)

Creation date: May 8, 2025, 3:01 a.m.

Reference frame: TEME

Reference center: EARTH

Epoch: May 7, 2025, 8:26 a.m. UTC

TLE line 0: 0 NOAA 16 DEB

TLE line 1: 1 41244U 00055EU 25127.35172935 .00006253 00000-0 22972-2 0 9997

TLE line 2: 2 41244 99.0237 278.6495 0012185 99.7037 260.5522 14.33024052483089

Live tracking on map

Real-time ground track for satellite NOAA 16 DEB.

In-orbit conjunctions

A list of the most updated potential collisions computed for object NOAA 16 DEB.

Target Orbit TCA Probability of collision Miss distance Type
CZ-6A DEB LEO 2025-01-19 22:03:46 0.0002119947 580.0 (m) DEBRIS
CZ-6A DEB LEO 2024-11-08 13:27:20 0.0002288131 923.0 (m) DEBRIS

Associated space launch

The NOAA K, L and M POES satellites begin the fifth generation of improved environmental monitoring in support of NOAA missions. The instrument payload has significant improvements and additions/deletions. The instrument changes have effected the spacecraft subsystems and data formats.

NOAA 16 DEB was lifted into orbit during the mission ‘Titan II SLV | NOAA 16’, on board a Titan II SLV space rocket.

The launch took place on Sept. 21, 2000, 10:22 a.m. from Space Launch Complex 4W.

For more information about the launch, click the button.

Launch to space Titan II SLV | NOAA 16
Titan II SLV | NOAA 16

Agency: N/A

Status: Launch Successful

Launch date: Sept. 21, 2000, 10:22 a.m. UTC

Rocket: Titan II SLV

Launch pad: Space Launch Complex 4W

Location: Vandenberg SFB, CA, USA

...

Latest news about this satellite

There are no fresh news available about this satellite. Check back as we update our databases every day.


Newsletter sign-up

Weekly statistics, charts and insights to help you stay on top of the space industry.